GLOBALSTAR M092 (38043 NORAD) Tracking and Keplerian Element Data

This shows tracking and keplerian element data for the satellite.

Feedback or suggestion? Click here.




ElementValue
Catalog38043
NameGLOBALSTAR M092
Epoch Orbit60534
Epoch Day35.0266797
Epoch Year2025
RAAN141.2236
Inclination52.0081
Eccentricity8.92E-05
Argument of Perigee117.5616
Mean Anonmoly53.4571
Mean Motion12.62272754
Decay Rate-7.8E-07
L11 38043U 11080D 25035.02667970 -.00000078 00000+0 14439-3 0 9999
L22 38043 52.0081 141.2236 0000892 117.5616 53.4571 12.62272754605342



Live tracking and technical data element details for GLOBALSTAR M092 (NORAD 38043). GLOBALSTAR M092 can be tracked NOW for your location showing map with azimuth and elevation plus other details from your city location.







IsCatalogInMostPopularTable: catalog: 38043, numindb: 375
Update: records affected: 1



GetName: 38043 GLOBALSTAR M092

Hit Count: updated at: Thu, 15 May 2025 20:07:57 GMT